TimeCDT,TemperatureF,Dew PointF,Humidity,Sea Level PressureIn,VisibilityMPH,Wind Direction,Wind SpeedMPH,Gust SpeedMPH,PrecipitationIn,Events,Conditions,WindDirDegrees,DateUTC
12:53 AM,66.9,52.0,59,29.96,10.0,East,6.9,-,N/A,,Partly Cloudy,100,2013-04-02 05:53:00
1:53 AM,66.9,53.1,61,29.91,10.0,SSE,16.1,-,N/A,,Clear,160,2013-04-02 06:53:00
2:53 AM,69.1,60.1,73,29.91,10.0,SSE,20.7,32.2,N/A,,Clear,160,2013-04-02 07:53:00
3:53 AM,68.0,61.0,78,29.89,10.0,East,5.8,-,N/A,,Partly Cloudy,90,2013-04-02 08:53:00
4:53 AM,66.9,61.0,81,29.88,10.0,East,6.9,-,N/A,,Partly Cloudy,80,2013-04-02 09:53:00
5:53 AM,64.9,61.0,87,29.90,10.0,NW,6.9,-,N/A,,Clear,320,2013-04-02 10:53:00
6:53 AM,66.0,59.0,78,29.94,10.0,SE,6.9,-,0.00,Rain,Light Rain,130,2013-04-02 11:53:00
7:53 AM,64.9,63.0,93,29.94,7.0,South,12.7,-,0.00,,Clear,170,2013-04-02 12:53:00
8:53 AM,62.1,59.0,90,29.98,10.0,NNW,5.8,-,N/A,,Mostly Cloudy,330,2013-04-02 13:53:00
9:53 AM,60.1,57.0,90,30.00,10.0,NNW,9.2,-,0.00,,Mostly Cloudy,330,2013-04-02 14:53:00
10:12 AM,59.0,55.4,88,30.01,10.0,Calm,Calm,-,N/A,,Overcast,0,2013-04-02 15:12:00
10:41 AM,60.8,57.2,88,30.00,10.0,Calm,Calm,-,0.00,Rain,Light Rain,0,2013-04-02 15:41:00
10:53 AM,61.0,57.9,90,30.00,9.0,Calm,Calm,-,0.01,Rain,Light Rain,0,2013-04-02 15:53:00
11:15 AM,62.6,59.0,88,30.00,10.0,South,6.9,-,0.00,,Mostly Cloudy,170,2013-04-02 16:15:00
11:53 AM,63.0,61.0,93,29.95,6.0,SSE,17.3,-,0.00,Rain,Light Rain,160,2013-04-02 16:53:00
12:10 PM,57.2,57.2,100,30.00,5.0,WNW,12.7,-,0.01,Rain,Light Rain,290,2013-04-02 17:10:00
12:17 PM,55.4,55.4,100,30.00,6.0,WNW,17.3,20.7,0.01,Rain,Light Rain,300,2013-04-02 17:17:00
12:53 PM,55.9,55.9,100,29.99,6.0,NNW,9.2,-,0.01,,Overcast,340,2013-04-02 17:53:00
1:53 PM,57.9,57.0,97,29.99,8.0,NW,9.2,-,N/A,,Overcast,320,2013-04-02 18:53:00
2:53 PM,60.1,57.9,93,29.94,7.0,North,9.2,-,N/A,,Scattered Clouds,360,2013-04-02 19:53:00
3:53 PM,62.1,59.0,90,29.93,9.0,NNW,4.6,-,N/A,,Partly Cloudy,340,2013-04-02 20:53:00
4:53 PM,66.0,60.1,81,29.91,10.0,NNE,8.1,-,N/A,,Scattered Clouds,30,2013-04-02 21:53:00
5:33 PM,64.4,59.0,83,29.91,10.0,North,16.1,-,N/A,,Mostly Cloudy,10,2013-04-02 22:33:00
5:53 PM,61.0,57.9,90,29.91,8.0,North,16.1,-,N/A,,Overcast,360,2013-04-02 22:53:00
6:14 PM,60.8,57.2,88,29.93,6.0,North,13.8,-,N/A,,Overcast,10,2013-04-02 23:14:00
6:53 PM,59.0,57.0,93,29.93,7.0,North,10.4,-,N/A,,Overcast,350,2013-04-02 23:53:00
7:53 PM,57.0,55.0,93,29.95,10.0,North,13.8,-,N/A,,Overcast,360,2013-04-03 00:53:00
8:43 PM,57.2,53.6,88,29.98,10.0,NNE,17.3,21.9,N/A,,Overcast,20,2013-04-03 01:43:00
8:53 PM,55.9,54.0,93,29.97,8.0,NNE,12.7,-,0.01,Rain,Rain,20,2013-04-03 01:53:00
9:53 PM,54.0,48.9,83,29.96,10.0,NE,18.4,29.9,0.00,,Overcast,50,2013-04-03 02:53:00
10:53 PM,53.1,45.0,74,29.98,10.0,East,16.1,25.3,N/A,,Overcast,80,2013-04-03 03:53:00
11:22 PM,53.6,44.6,72,29.98,10.0,East,19.6,24.2,N/A,,Overcast,80,2013-04-03 04:22:00
11:53 PM,53.1,45.0,74,29.96,10.0,East,17.3,23.0,N/A,,Overcast,80,2013-04-03 04:53:00